<?xml version="1.0"?>
<gpx xmlns="http://www.topografix.com/GPX/1/1" xmlns:xsi="http://www.w3.org/2001/XMLSchema-instance" version="1.1" creator="GPX RubyGem 1.0.0 -- http://dougfales.github.io/gpx/" xsi:schemaLocation="http://www.topografix.com/GPX/1/1 http://www.topografix.com/GPX/1/1/gpx.xsd">
  <metadata>
    <name/>
    <time>2026-05-08T15:46:22+00:00</time>
    <bound minlat="90.0" minlon="180.0" maxlat="-90.0" maxlon="-180.0"/>
  </metadata>
  <trk>
    <name/>
    <trkseg>
      <trkpt lat="45.151483" lon="5.694209">
        <time>1970-01-01T00:00:00+00:00</time>
        <ele>227.0</ele>
      </trkpt>
      <trkpt lat="45.151445" lon="5.694235">
        <time>1970-01-01T00:00:00+00:00</time>
        <ele>227.0</ele>
      </trkpt>
      <trkpt lat="45.151415" lon="5.694153">
        <time>1970-01-01T00:00:00+00:00</time>
        <ele>227.0</ele>
      </trkpt>
      <trkpt lat="45.151392" lon="5.694172">
        <time>1970-01-01T00:00:00+00:00</time>
        <ele>227.0</ele>
      </trkpt>
      <trkpt lat="45.151492" lon="5.694443">
        <time>1970-01-01T00:00:00+00:00</time>
        <ele>227.0</ele>
      </trkpt>
      <trkpt lat="45.151543" lon="5.694594">
        <time>1970-01-01T00:00:00+00:00</time>
        <ele>227.0</ele>
      </trkpt>
      <trkpt lat="45.151581" lon="5.694718">
        <time>1970-01-01T00:00:00+00:00</time>
        <ele>227.0</ele>
      </trkpt>
      <trkpt lat="45.151604" lon="5.694784">
        <time>1970-01-01T00:00:00+00:00</time>
        <ele>227.0</ele>
      </trkpt>
      <trkpt lat="45.151717" lon="5.695102">
        <time>1970-01-01T00:00:00+00:00</time>
        <ele>227.0</ele>
      </trkpt>
      <trkpt lat="45.151779" lon="5.695277">
        <time>1970-01-01T00:00:00+00:00</time>
        <ele>227.0</ele>
      </trkpt>
      <trkpt lat="45.15198" lon="5.695857">
        <time>1970-01-01T00:00:00+00:00</time>
        <ele>227.0</ele>
      </trkpt>
      <trkpt lat="45.152038" lon="5.696018">
        <time>1970-01-01T00:00:00+00:00</time>
        <ele>227.0</ele>
      </trkpt>
      <trkpt lat="45.152141" lon="5.696171">
        <time>1970-01-01T00:00:00+00:00</time>
        <ele>227.0</ele>
      </trkpt>
      <trkpt lat="45.152237" lon="5.696258">
        <time>1970-01-01T00:00:00+00:00</time>
        <ele>227.0</ele>
      </trkpt>
      <trkpt lat="45.152974" lon="5.696641">
        <time>1970-01-01T00:00:00+00:00</time>
        <ele>227.0</ele>
      </trkpt>
      <trkpt lat="45.153041" lon="5.696712">
        <time>1970-01-01T00:00:00+00:00</time>
        <ele>227.0</ele>
      </trkpt>
      <trkpt lat="45.153086" lon="5.696825">
        <time>1970-01-01T00:00:00+00:00</time>
        <ele>227.0</ele>
      </trkpt>
      <trkpt lat="45.15344" lon="5.696672">
        <time>1970-01-01T00:00:00+00:00</time>
        <ele>227.0</ele>
      </trkpt>
      <trkpt lat="45.153552" lon="5.69657">
        <time>1970-01-01T00:00:00+00:00</time>
        <ele>227.0</ele>
      </trkpt>
      <trkpt lat="45.153013" lon="5.695253">
        <time>1970-01-01T00:00:00+00:00</time>
        <ele>226.0</ele>
      </trkpt>
      <trkpt lat="45.152051" lon="5.693076">
        <time>1970-01-01T00:00:00+00:00</time>
        <ele>227.0</ele>
      </trkpt>
      <trkpt lat="45.151636" lon="5.692303">
        <time>1970-01-01T00:00:00+00:00</time>
        <ele>227.0</ele>
      </trkpt>
      <trkpt lat="45.151029" lon="5.691465">
        <time>1970-01-01T00:00:00+00:00</time>
        <ele>226.0</ele>
      </trkpt>
      <trkpt lat="45.150797" lon="5.691234">
        <time>1970-01-01T00:00:00+00:00</time>
        <ele>227.0</ele>
      </trkpt>
      <trkpt lat="45.150797" lon="5.691234">
        <time>1970-01-01T00:00:00+00:00</time>
        <ele>227.0</ele>
      </trkpt>
      <trkpt lat="45.151029" lon="5.691465">
        <time>1970-01-01T00:00:00+00:00</time>
        <ele>226.0</ele>
      </trkpt>
      <trkpt lat="45.151636" lon="5.692303">
        <time>1970-01-01T00:00:00+00:00</time>
        <ele>227.0</ele>
      </trkpt>
      <trkpt lat="45.152051" lon="5.693076">
        <time>1970-01-01T00:00:00+00:00</time>
        <ele>227.0</ele>
      </trkpt>
      <trkpt lat="45.153013" lon="5.695253">
        <time>1970-01-01T00:00:00+00:00</time>
        <ele>226.0</ele>
      </trkpt>
      <trkpt lat="45.153552" lon="5.69657">
        <time>1970-01-01T00:00:00+00:00</time>
        <ele>227.0</ele>
      </trkpt>
      <trkpt lat="45.15344" lon="5.696672">
        <time>1970-01-01T00:00:00+00:00</time>
        <ele>227.0</ele>
      </trkpt>
      <trkpt lat="45.153086" lon="5.696825">
        <time>1970-01-01T00:00:00+00:00</time>
        <ele>227.0</ele>
      </trkpt>
      <trkpt lat="45.153041" lon="5.696712">
        <time>1970-01-01T00:00:00+00:00</time>
        <ele>227.0</ele>
      </trkpt>
      <trkpt lat="45.152974" lon="5.696641">
        <time>1970-01-01T00:00:00+00:00</time>
        <ele>227.0</ele>
      </trkpt>
      <trkpt lat="45.152237" lon="5.696258">
        <time>1970-01-01T00:00:00+00:00</time>
        <ele>227.0</ele>
      </trkpt>
      <trkpt lat="45.152141" lon="5.696171">
        <time>1970-01-01T00:00:00+00:00</time>
        <ele>227.0</ele>
      </trkpt>
      <trkpt lat="45.152038" lon="5.696018">
        <time>1970-01-01T00:00:00+00:00</time>
        <ele>227.0</ele>
      </trkpt>
      <trkpt lat="45.15198" lon="5.695857">
        <time>1970-01-01T00:00:00+00:00</time>
        <ele>227.0</ele>
      </trkpt>
      <trkpt lat="45.151779" lon="5.695277">
        <time>1970-01-01T00:00:00+00:00</time>
        <ele>227.0</ele>
      </trkpt>
      <trkpt lat="45.151717" lon="5.695102">
        <time>1970-01-01T00:00:00+00:00</time>
        <ele>227.0</ele>
      </trkpt>
      <trkpt lat="45.151604" lon="5.694784">
        <time>1970-01-01T00:00:00+00:00</time>
        <ele>227.0</ele>
      </trkpt>
      <trkpt lat="45.151581" lon="5.694718">
        <time>1970-01-01T00:00:00+00:00</time>
        <ele>227.0</ele>
      </trkpt>
      <trkpt lat="45.151543" lon="5.694594">
        <time>1970-01-01T00:00:00+00:00</time>
        <ele>227.0</ele>
      </trkpt>
      <trkpt lat="45.151492" lon="5.694443">
        <time>1970-01-01T00:00:00+00:00</time>
        <ele>227.0</ele>
      </trkpt>
      <trkpt lat="45.151392" lon="5.694172">
        <time>1970-01-01T00:00:00+00:00</time>
        <ele>227.0</ele>
      </trkpt>
      <trkpt lat="45.151415" lon="5.694153">
        <time>1970-01-01T00:00:00+00:00</time>
        <ele>227.0</ele>
      </trkpt>
      <trkpt lat="45.151445" lon="5.694235">
        <time>1970-01-01T00:00:00+00:00</time>
        <ele>227.0</ele>
      </trkpt>
      <trkpt lat="45.151483" lon="5.694209">
        <time>1970-01-01T00:00:00+00:00</time>
        <ele>227.0</ele>
      </trkpt>
    </trkseg>
  </trk>
</gpx>
